Year,Month,Day,Hour,Minute,Value (Times are PST for temperature in C)
2009,07,06,00,00,16.10
2009,07,06,00,01,16.10
2009,07,06,00,02,16.10
2009,07,06,00,03,16.10
2009,07,06,00,04,16.10
2009,07,06,00,05,16.10
2009,07,06,00,06,16.10
2009,07,06,00,07,16.10
2009,07,06,00,08,16.20
2009,07,06,00,09,16.20
2009,07,06,00,10,16.20
2009,07,06,00,11,16.20
2009,07,06,00,12,16.30
2009,07,06,00,13,16.30
2009,07,06,00,14,16.30
2009,07,06,00,15,16.30
2009,07,06,00,16,16.30
2009,07,06,00,17,16.30
2009,07,06,00,18,16.20
2009,07,06,00,19,16.20
2009,07,06,00,20,16.20
2009,07,06,00,21,16.20
2009,07,06,00,22,16.20
2009,07,06,00,23,16.10
2009,07,06,00,24,16.10
2009,07,06,00,25,16.10
2009,07,06,00,26,16.10
2009,07,06,00,27,16.10
2009,07,06,00,28,16.10
2009,07,06,00,29,16.10
2009,07,06,00,30,16.10
2009,07,06,00,31,16.10
2009,07,06,00,32,16.10
2009,07,06,00,33,16.10
2009,07,06,00,34,16.10
2009,07,06,00,35,16.10
2009,07,06,00,36,16.10
2009,07,06,00,37,16.10
2009,07,06,00,38,16.10
2009,07,06,00,39,16.10
2009,07,06,00,40,16.10
2009,07,06,00,41,16.10
2009,07,06,00,42,16.10
2009,07,06,00,43,16.10
2009,07,06,00,44,16.10
2009,07,06,00,45,16.10
2009,07,06,00,46,16.10
2009,07,06,00,47,16.10
2009,07,06,00,48,16.10
2009,07,06,00,49,16.10
2009,07,06,00,50,16.10
2009,07,06,00,51,16.10
2009,07,06,00,52,16.10
2009,07,06,00,53,16.10
2009,07,06,00,54,15.90
2009,07,06,00,55,15.90
2009,07,06,00,56,15.90
2009,07,06,00,57,15.90
2009,07,06,00,58,15.90
2009,07,06,00,59,15.90
2009,07,06,01,00,15.90
2009,07,06,01,01,15.90
2009,07,06,01,02,15.90
2009,07,06,01,03,15.90
2009,07,06,01,04,15.90
2009,07,06,01,05,15.90
2009,07,06,01,06,15.90
2009,07,06,01,07,15.90
2009,07,06,01,08,15.90
2009,07,06,01,09,15.80
2009,07,06,01,10,15.80
2009,07,06,01,11,15.80
2009,07,06,01,12,15.80
2009,07,06,01,13,15.80
2009,07,06,01,14,15.90
2009,07,06,01,15,15.90
2009,07,06,01,16,15.90
2009,07,06,01,17,16.00
2009,07,06,01,18,16.10
2009,07,06,01,19,16.10
2009,07,06,01,20,16.10
2009,07,06,01,21,16.10
2009,07,06,01,22,16.10
2009,07,06,01,23,16.10
2009,07,06,01,24,16.10
2009,07,06,01,25,16.10
2009,07,06,01,26,16.10
2009,07,06,01,27,16.10
2009,07,06,01,28,16.10
2009,07,06,01,29,16.10
2009,07,06,01,30,16.10
2009,07,06,01,31,16.10
2009,07,06,01,32,16.10
2009,07,06,01,33,16.20
2009,07,06,01,34,16.20
2009,07,06,01,35,16.20
2009,07,06,01,36,16.20
2009,07,06,01,37,16.30
2009,07,06,01,38,16.30
2009,07,06,01,39,16.30
2009,07,06,01,40,16.30
2009,07,06,01,41,16.30
2009,07,06,01,42,16.30
2009,07,06,01,43,16.30
2009,07,06,01,44,16.30
2009,07,06,01,45,16.30
2009,07,06,01,46,16.30
2009,07,06,01,47,16.30
2009,07,06,01,48,16.30
2009,07,06,01,49,16.30
2009,07,06,01,50,16.30
2009,07,06,01,51,16.30
2009,07,06,01,52,16.30
2009,07,06,01,53,16.30
2009,07,06,01,54,16.30
2009,07,06,01,55,16.30
2009,07,06,01,56,16.20
2009,07,06,01,57,16.20
2009,07,06,01,58,16.20
2009,07,06,01,59,16.20
2009,07,06,02,00,16.20
2009,07,06,02,01,16.20
2009,07,06,02,02,16.20
2009,07,06,02,03,16.20
2009,07,06,02,04,16.20
2009,07,06,02,05,16.20
2009,07,06,02,06,16.20
2009,07,06,02,07,16.10
2009,07,06,02,08,16.00
2009,07,06,02,09,15.80
2009,07,06,02,10,15.70
2009,07,06,02,11,15.50
2009,07,06,02,12,15.40
2009,07,06,02,13,15.30
2009,07,06,02,14,15.10
2009,07,06,02,15,15.00
2009,07,06,02,16,15.00
2009,07,06,02,17,14.90
2009,07,06,02,18,14.80
2009,07,06,02,19,14.80
2009,07,06,02,20,14.80
2009,07,06,02,21,14.70
2009,07,06,02,22,14.70
2009,07,06,02,23,14.70
2009,07,06,02,24,14.60
2009,07,06,02,25,14.60
2009,07,06,02,26,14.60
2009,07,06,02,27,14.60
2009,07,06,02,28,14.60
2009,07,06,02,29,14.50
2009,07,06,02,30,14.50
2009,07,06,02,31,14.50
2009,07,06,02,32,14.50
2009,07,06,02,33,14.50
2009,07,06,02,34,14.50
2009,07,06,02,35,14.50
2009,07,06,02,36,14.50
2009,07,06,02,37,14.50
2009,07,06,02,38,14.50
2009,07,06,02,39,14.50
2009,07,06,02,40,14.50
2009,07,06,02,41,14.50
2009,07,06,02,42,14.50
2009,07,06,02,43,14.50
2009,07,06,02,44,14.50
2009,07,06,02,45,14.50
2009,07,06,02,46,14.50
2009,07,06,02,47,14.50
2009,07,06,02,48,14.50
2009,07,06,02,49,14.50
2009,07,06,02,50,14.50
2009,07,06,02,51,14.40
2009,07,06,02,52,14.40
2009,07,06,02,53,14.40
2009,07,06,02,54,14.40
2009,07,06,02,55,14.30
2009,07,06,02,56,14.30
2009,07,06,02,57,14.30
2009,07,06,02,58,14.30
2009,07,06,02,59,14.20
2009,07,06,03,00,14.20
2009,07,06,03,01,14.20
2009,07,06,03,02,14.20
2009,07,06,03,03,14.20
2009,07,06,03,04,14.20
2009,07,06,03,05,14.20
2009,07,06,03,06,14.20
2009,07,06,03,07,14.10
2009,07,06,03,08,14.10
2009,07,06,03,09,14.10
2009,07,06,03,10,14.10
2009,07,06,03,11,14.10
2009,07,06,03,12,14.10
2009,07,06,03,13,14.10
2009,07,06,03,14,14.10
2009,07,06,03,15,14.00
2009,07,06,03,16,14.00
2009,07,06,03,17,14.00
2009,07,06,03,18,14.00
2009,07,06,03,19,14.00
2009,07,06,03,20,14.00
2009,07,06,03,21,13.90
2009,07,06,03,22,13.90
2009,07,06,03,23,13.90
2009,07,06,03,24,13.90
2009,07,06,03,25,13.90
2009,07,06,03,26,13.90
2009,07,06,03,27,13.90
2009,07,06,03,28,13.90
2009,07,06,03,29,13.90
2009,07,06,03,30,13.80
2009,07,06,03,31,13.80
2009,07,06,03,32,13.80
2009,07,06,03,33,13.80
2009,07,06,03,34,13.80
2009,07,06,03,35,13.70
2009,07,06,03,36,13.70
2009,07,06,03,37,13.70
2009,07,06,03,38,13.70
2009,07,06,03,39,13.70
2009,07,06,03,40,13.70
2009,07,06,03,41,13.70
2009,07,06,03,42,13.70
2009,07,06,03,43,13.70
2009,07,06,03,44,13.70
2009,07,06,03,45,13.70
2009,07,06,03,46,13.70
2009,07,06,03,47,13.70
2009,07,06,03,48,13.70
2009,07,06,03,49,13.70
2009,07,06,03,50,13.70
2009,07,06,03,51,13.70
2009,07,06,03,52,13.70
2009,07,06,03,53,13.70
2009,07,06,03,54,13.70
2009,07,06,03,55,13.70
2009,07,06,03,56,13.70
2009,07,06,03,57,13.70
2009,07,06,03,58,13.70
2009,07,06,03,59,13.70
2009,07,06,04,00,13.70
2009,07,06,04,01,13.70
2009,07,06,04,02,13.70
2009,07,06,04,03,13.70
2009,07,06,04,04,13.70
2009,07,06,04,05,13.70
2009,07,06,04,06,13.70
2009,07,06,04,07,13.70
2009,07,06,04,08,13.70
2009,07,06,04,09,13.70
2009,07,06,04,10,13.70
2009,07,06,04,11,13.70
2009,07,06,04,12,13.70
2009,07,06,04,13,13.70
2009,07,06,04,14,13.70
2009,07,06,04,15,13.70
2009,07,06,04,16,13.70
2009,07,06,04,17,13.70
2009,07,06,04,18,13.70
2009,07,06,04,19,13.70
2009,07,06,04,20,13.70
2009,07,06,04,21,13.70
2009,07,06,04,22,13.70
2009,07,06,04,23,13.70
2009,07,06,04,24,13.70
2009,07,06,04,25,13.70
2009,07,06,04,26,13.70
2009,07,06,04,27,13.70
2009,07,06,04,28,13.70
2009,07,06,04,29,13.70
2009,07,06,04,30,13.70
2009,07,06,04,31,13.60
2009,07,06,04,32,13.60
2009,07,06,04,33,13.60
2009,07,06,04,34,13.60
2009,07,06,04,35,13.60
2009,07,06,04,36,13.50
2009,07,06,04,37,13.50
2009,07,06,04,38,13.50
2009,07,06,04,39,13.50
2009,07,06,04,40,13.50
2009,07,06,04,41,13.40
2009,07,06,04,42,13.40
2009,07,06,04,43,13.40
2009,07,06,04,44,13.40
2009,07,06,04,45,13.30
2009,07,06,04,46,13.30
2009,07,06,04,47,13.30
2009,07,06,04,48,13.30
2009,07,06,04,49,13.30
2009,07,06,04,50,13.30
2009,07,06,04,51,13.30
2009,07,06,04,52,13.30
2009,07,06,04,53,13.30
2009,07,06,04,54,13.30
2009,07,06,04,55,13.30
2009,07,06,04,56,13.30
2009,07,06,04,57,13.30
2009,07,06,04,58,13.30
2009,07,06,04,59,13.30
2009,07,06,05,00,13.30
2009,07,06,05,01,13.30
2009,07,06,05,02,13.30
2009,07,06,05,03,13.30
2009,07,06,05,04,13.30
2009,07,06,05,05,13.30
2009,07,06,05,06,13.30
2009,07,06,05,07,13.30
2009,07,06,05,08,13.30
2009,07,06,05,09,13.30
2009,07,06,05,10,13.30
2009,07,06,05,11,13.30
2009,07,06,05,12,13.30
2009,07,06,05,13,13.30
2009,07,06,05,14,13.30
2009,07,06,05,15,13.30
2009,07,06,05,16,13.30
2009,07,06,05,17,13.30
2009,07,06,05,18,13.30
2009,07,06,05,19,13.30
2009,07,06,05,20,13.30
2009,07,06,05,21,13.30
2009,07,06,05,22,13.30
2009,07,06,05,23,13.30
2009,07,06,05,24,13.30
2009,07,06,05,25,13.30
2009,07,06,05,26,13.30
2009,07,06,05,27,13.30
2009,07,06,05,28,13.30
2009,07,06,05,29,13.30
2009,07,06,05,30,13.30
2009,07,06,05,31,13.30
2009,07,06,05,32,13.30
2009,07,06,05,33,13.20
2009,07,06,05,34,13.20
2009,07,06,05,35,13.20
2009,07,06,05,36,13.20
2009,07,06,05,37,13.20
2009,07,06,05,38,13.20
2009,07,06,05,39,13.20
2009,07,06,05,40,13.20
2009,07,06,05,41,13.20
2009,07,06,05,42,13.20
2009,07,06,05,43,13.30
2009,07,06,05,44,13.30
2009,07,06,05,45,13.30
2009,07,06,05,46,13.30
2009,07,06,05,47,13.30
2009,07,06,05,48,13.30
2009,07,06,05,49,13.30
2009,07,06,05,50,13.30
2009,07,06,05,51,13.30
2009,07,06,05,52,13.30
2009,07,06,05,53,13.30
2009,07,06,05,54,13.40
2009,07,06,05,55,13.40
2009,07,06,05,56,13.40
2009,07,06,05,57,13.40
2009,07,06,05,58,13.50
2009,07,06,05,59,13.50
2009,07,06,06,00,13.50
2009,07,06,06,01,13.60
2009,07,06,06,02,13.60
2009,07,06,06,03,13.60
2009,07,06,06,04,13.70
2009,07,06,06,05,13.70
2009,07,06,06,06,13.60
2009,07,06,06,07,13.60
2009,07,06,06,08,13.60
2009,07,06,06,09,13.60
2009,07,06,06,10,13.60
2009,07,06,06,11,13.60
2009,07,06,06,12,13.60
2009,07,06,06,13,13.60
2009,07,06,06,14,13.60
2009,07,06,06,15,13.60
2009,07,06,06,16,13.60
2009,07,06,06,17,13.60
2009,07,06,06,18,13.70
2009,07,06,06,19,13.70
2009,07,06,06,20,13.70
2009,07,06,06,21,13.70
2009,07,06,06,22,13.70
2009,07,06,06,23,13.70
2009,07,06,06,24,13.70
2009,07,06,06,25,13.80
2009,07,06,06,26,13.80
2009,07,06,06,27,13.80
2009,07,06,06,28,13.80
2009,07,06,06,29,13.90
2009,07,06,06,30,13.90
2009,07,06,06,31,13.90
2009,07,06,06,32,13.90
2009,07,06,06,33,13.90
2009,07,06,06,34,13.90
2009,07,06,06,35,14.00
2009,07,06,06,36,14.00
2009,07,06,06,37,14.00
2009,07,06,06,38,14.00
2009,07,06,06,39,14.00
2009,07,06,06,40,14.00
2009,07,06,06,41,14.00
2009,07,06,06,42,14.00
2009,07,06,06,43,14.10
2009,07,06,06,44,14.10
2009,07,06,06,45,14.10
2009,07,06,06,46,14.10
2009,07,06,06,47,14.10
2009,07,06,06,48,14.10
2009,07,06,06,49,14.20
2009,07,06,06,50,14.20
2009,07,06,06,51,14.20
2009,07,06,06,52,14.20
2009,07,06,06,53,14.20
2009,07,06,06,54,14.20
2009,07,06,06,55,14.20
2009,07,06,06,56,14.20
2009,07,06,06,57,14.20
2009,07,06,06,58,14.20
2009,07,06,06,59,14.20
2009,07,06,07,00,14.20
2009,07,06,07,01,14.20
2009,07,06,07,02,14.20
2009,07,06,07,03,14.20
2009,07,06,07,04,14.20
2009,07,06,07,05,14.20
2009,07,06,07,06,14.30
2009,07,06,07,07,14.30
2009,07,06,07,08,14.30
2009,07,06,07,09,14.30
2009,07,06,07,10,14.30
2009,07,06,07,11,14.40
2009,07,06,07,12,14.40
2009,07,06,07,13,14.40
2009,07,06,07,14,14.40
2009,07,06,07,15,14.40
2009,07,06,07,16,14.50
2009,07,06,07,17,14.50
2009,07,06,07,18,14.50
2009,07,06,07,19,14.50
2009,07,06,07,20,14.50
2009,07,06,07,21,14.60
2009,07,06,07,22,14.50
2009,07,06,07,23,14.50
2009,07,06,07,24,14.50
2009,07,06,07,25,14.50
2009,07,06,07,26,14.50
2009,07,06,07,27,14.50
2009,07,06,07,28,14.40
2009,07,06,07,29,14.40
2009,07,06,07,30,14.40
2009,07,06,07,31,14.40
2009,07,06,07,32,14.30
2009,07,06,07,33,14.30
2009,07,06,07,34,14.30
2009,07,06,07,35,14.30
2009,07,06,07,36,14.20
2009,07,06,07,37,14.20
2009,07,06,07,38,14.20
2009,07,06,07,39,14.20
2009,07,06,07,40,14.20
2009,07,06,07,41,14.10
2009,07,06,07,42,14.10
2009,07,06,07,43,14.10
2009,07,06,07,44,14.10
2009,07,06,07,45,14.00
2009,07,06,07,46,14.00
2009,07,06,07,47,14.10
2009,07,06,07,48,14.10
2009,07,06,07,49,14.10
2009,07,06,07,50,14.10
2009,07,06,07,51,14.10
2009,07,06,07,52,14.20
2009,07,06,07,53,14.20
2009,07,06,07,54,14.20
2009,07,06,07,55,14.20
2009,07,06,07,56,14.20
2009,07,06,07,57,14.20
2009,07,06,07,58,14.30
2009,07,06,07,59,14.30
2009,07,06,08,00,14.30
2009,07,06,08,01,14.30
2009,07,06,08,02,14.40
2009,07,06,08,03,14.40
2009,07,06,08,04,14.40
2009,07,06,08,05,14.50
2009,07,06,08,06,14.50
2009,07,06,08,07,14.50
2009,07,06,08,08,14.50
2009,07,06,08,09,14.50
2009,07,06,08,10,14.50
2009,07,06,08,11,14.60
2009,07,06,08,12,14.60
2009,07,06,08,13,14.60
2009,07,06,08,14,14.60
2009,07,06,08,15,14.60
2009,07,06,08,16,14.60
2009,07,06,08,17,14.60
2009,07,06,08,18,14.60
2009,07,06,08,19,14.60
2009,07,06,08,20,14.60
2009,07,06,08,21,14.60
2009,07,06,08,22,14.60
2009,07,06,08,23,14.50
2009,07,06,08,24,14.50
2009,07,06,08,25,14.50
2009,07,06,08,26,14.50
2009,07,06,08,27,14.50
2009,07,06,08,28,14.50
2009,07,06,08,29,14.50
2009,07,06,08,30,14.50
2009,07,06,08,31,14.50
2009,07,06,08,32,14.50
2009,07,06,08,33,14.50
2009,07,06,08,34,14.60
2009,07,06,08,35,14.60
2009,07,06,08,36,14.60
2009,07,06,08,37,14.60
2009,07,06,08,38,14.60
2009,07,06,08,39,14.60
2009,07,06,08,40,14.60
2009,07,06,08,41,14.70
2009,07,06,08,42,14.60
2009,07,06,08,43,14.60
2009,07,06,08,44,14.60
2009,07,06,08,45,14.60
2009,07,06,08,46,14.70
2009,07,06,08,47,14.70
2009,07,06,08,48,14.70
2009,07,06,08,49,14.60
2009,07,06,08,50,14.60
2009,07,06,08,51,14.60
2009,07,06,08,52,14.60
2009,07,06,08,53,14.60
2009,07,06,08,54,14.60
2009,07,06,08,55,14.60
2009,07,06,08,56,14.70
2009,07,06,08,57,14.70
2009,07,06,08,58,14.70
2009,07,06,08,59,14.70
2009,07,06,09,00,14.60
2009,07,06,09,01,14.60
2009,07,06,09,02,14.50
2009,07,06,09,03,14.50
2009,07,06,09,04,14.40
2009,07,06,09,05,14.30
2009,07,06,09,06,14.20
2009,07,06,09,07,14.20
2009,07,06,09,08,14.20
2009,07,06,09,09,14.20
2009,07,06,09,10,14.20
2009,07,06,09,11,14.20
2009,07,06,09,12,14.20
2009,07,06,09,13,14.20
2009,07,06,09,14,14.20
2009,07,06,09,15,14.20
2009,07,06,09,16,14.20
2009,07,06,09,17,14.20
2009,07,06,09,18,14.20
2009,07,06,09,19,14.20
2009,07,06,09,20,14.20
2009,07,06,09,21,14.20
2009,07,06,09,22,14.20
2009,07,06,09,23,14.20
2009,07,06,09,24,14.20
2009,07,06,09,25,14.20
2009,07,06,09,26,14.20
2009,07,06,09,27,14.20
2009,07,06,09,28,14.20
2009,07,06,09,29,14.20
2009,07,06,09,30,14.20
2009,07,06,09,31,14.20
2009,07,06,09,32,14.30
2009,07,06,09,33,14.30
2009,07,06,09,34,14.30
2009,07,06,09,35,14.30
2009,07,06,09,36,14.30
2009,07,06,09,37,14.30
2009,07,06,09,38,14.30
2009,07,06,09,39,14.30
2009,07,06,09,40,14.40
2009,07,06,09,41,14.40
2009,07,06,09,42,14.40
2009,07,06,09,43,14.30
2009,07,06,09,44,14.30
2009,07,06,09,45,14.30
2009,07,06,09,46,14.30
2009,07,06,09,47,14.40
2009,07,06,09,48,14.40
2009,07,06,09,49,14.40
2009,07,06,09,50,14.40
2009,07,06,09,51,14.40
2009,07,06,09,52,14.40
2009,07,06,09,53,14.40
2009,07,06,09,54,14.50
2009,07,06,09,55,14.50
2009,07,06,09,56,14.50
2009,07,06,09,57,14.50
2009,07,06,09,58,14.50
2009,07,06,09,59,14.60
2009,07,06,10,00,14.60
2009,07,06,10,01,14.60
2009,07,06,10,02,14.70
2009,07,06,10,03,14.70
2009,07,06,10,04,14.80
2009,07,06,10,05,14.80
2009,07,06,10,06,14.80
2009,07,06,10,07,14.80
2009,07,06,10,08,14.80
2009,07,06,10,09,14.80
2009,07,06,10,10,14.80
2009,07,06,10,11,14.80
2009,07,06,10,12,14.90
2009,07,06,10,13,14.90
2009,07,06,10,14,14.90
2009,07,06,10,15,15.00
2009,07,06,10,16,15.00
2009,07,06,10,17,15.00
2009,07,06,10,18,15.00
2009,07,06,10,19,15.00
2009,07,06,10,20,14.90
2009,07,06,10,21,14.90
2009,07,06,10,22,14.90
2009,07,06,10,23,14.90
2009,07,06,10,24,14.90
2009,07,06,10,25,14.90
2009,07,06,10,26,14.90
2009,07,06,10,27,14.90
2009,07,06,10,28,14.90
2009,07,06,10,29,14.90
2009,07,06,10,30,14.90
2009,07,06,10,31,15.00
2009,07,06,10,32,15.00
2009,07,06,10,33,15.10
2009,07,06,10,34,15.10
2009,07,06,10,35,15.10
2009,07,06,10,36,15.20
2009,07,06,10,37,15.20
2009,07,06,10,38,15.30
2009,07,06,10,39,15.30
2009,07,06,10,40,15.30
2009,07,06,10,41,15.40
2009,07,06,10,42,15.40
2009,07,06,10,43,15.50
2009,07,06,10,44,15.50
2009,07,06,10,45,15.60
2009,07,06,10,46,15.60
2009,07,06,10,47,15.70
2009,07,06,10,48,15.70
2009,07,06,10,49,15.70
2009,07,06,10,50,15.70
2009,07,06,10,51,15.70
2009,07,06,10,52,15.80
2009,07,06,10,53,15.80
2009,07,06,10,54,15.80
2009,07,06,10,55,15.80
2009,07,06,10,56,15.80
2009,07,06,10,57,15.80
2009,07,06,10,58,15.80
2009,07,06,10,59,15.80
2009,07,06,11,00,15.80
2009,07,06,11,01,15.90
2009,07,06,11,02,15.90
2009,07,06,11,03,15.90
2009,07,06,11,04,16.00
2009,07,06,11,05,16.10
2009,07,06,11,06,16.10
2009,07,06,11,07,16.20
2009,07,06,11,08,16.20
2009,07,06,11,09,16.30
2009,07,06,11,10,16.40
2009,07,06,11,11,16.40
2009,07,06,11,12,16.40
2009,07,06,11,13,16.40
2009,07,06,11,14,16.60
2009,07,06,11,15,16.60
2009,07,06,11,16,16.60
2009,07,06,11,17,16.60
2009,07,06,11,18,16.70
2009,07,06,11,19,16.70
2009,07,06,11,20,16.70
2009,07,06,11,21,16.70
2009,07,06,11,22,16.70
2009,07,06,11,23,16.70
2009,07,06,11,24,16.70
2009,07,06,11,25,16.70
2009,07,06,11,26,16.70
2009,07,06,11,27,16.70
2009,07,06,11,28,16.80
2009,07,06,11,29,16.80
2009,07,06,11,30,16.90
2009,07,06,11,31,16.90
2009,07,06,11,32,16.90
2009,07,06,11,33,16.90
2009,07,06,11,34,16.90
2009,07,06,11,35,16.90
2009,07,06,11,36,17.00
2009,07,06,11,37,17.00
2009,07,06,11,38,17.00
2009,07,06,11,39,17.00
2009,07,06,11,40,16.90
2009,07,06,11,41,16.80
2009,07,06,11,42,16.70
2009,07,06,11,43,16.70
2009,07,06,11,44,16.70
2009,07,06,11,45,16.70
2009,07,06,11,46,16.70
2009,07,06,11,47,16.70
2009,07,06,11,48,16.60
2009,07,06,11,49,16.50
2009,07,06,11,50,16.40
2009,07,06,11,51,16.30
2009,07,06,11,52,16.20
2009,07,06,11,53,16.10
2009,07,06,11,54,16.10
2009,07,06,11,55,16.10
2009,07,06,11,56,16.10
2009,07,06,11,57,16.10
2009,07,06,11,58,16.10
2009,07,06,11,59,16.10
2009,07,06,12,00,16.10
2009,07,06,12,01,16.10
2009,07,06,12,02,16.10
2009,07,06,12,03,16.10
2009,07,06,12,04,16.10
2009,07,06,12,05,16.10
2009,07,06,12,06,16.10
2009,07,06,12,07,16.10
2009,07,06,12,08,16.10
2009,07,06,12,09,16.10
2009,07,06,12,10,16.20
2009,07,06,12,11,16.20
2009,07,06,12,12,16.30
2009,07,06,12,13,16.40
2009,07,06,12,14,16.40
2009,07,06,12,15,16.40
2009,07,06,12,16,16.40
2009,07,06,12,17,16.40
2009,07,06,12,18,16.50
2009,07,06,12,19,16.60
2009,07,06,12,20,16.60
2009,07,06,12,21,16.70
2009,07,06,12,22,16.60
2009,07,06,12,23,16.60
2009,07,06,12,24,16.40
2009,07,06,12,25,16.50
2009,07,06,12,26,16.60
2009,07,06,12,27,16.60
2009,07,06,12,28,16.60
2009,07,06,12,29,16.70
2009,07,06,12,30,16.70
2009,07,06,12,31,16.80
2009,07,06,12,32,16.80
2009,07,06,12,33,16.90
2009,07,06,12,34,16.90
2009,07,06,12,35,17.00
2009,07,06,12,36,17.10
2009,07,06,12,37,17.20
2009,07,06,12,38,17.30
2009,07,06,12,39,17.30
2009,07,06,12,40,17.30
2009,07,06,12,41,17.30
2009,07,06,12,42,17.30
2009,07,06,12,43,17.30
2009,07,06,12,44,17.30
2009,07,06,12,45,17.30
2009,07,06,12,46,17.30
2009,07,06,12,47,17.30
2009,07,06,12,48,17.30
2009,07,06,12,49,17.40
2009,07,06,12,50,17.40
2009,07,06,12,51,17.40
2009,07,06,12,52,17.40
2009,07,06,12,53,17.40
2009,07,06,12,54,17.40
2009,07,06,12,55,17.40
2009,07,06,12,56,17.50
2009,07,06,12,57,17.50
2009,07,06,12,58,17.50
2009,07,06,12,59,17.60
2009,07,06,13,00,17.70
2009,07,06,13,01,17.70
2009,07,06,13,02,17.80
2009,07,06,13,03,17.80
2009,07,06,13,04,17.90
2009,07,06,13,05,17.90
2009,07,06,13,06,17.90
2009,07,06,13,07,18.00
2009,07,06,13,08,18.10
2009,07,06,13,09,18.10
2009,07,06,13,10,17.90
2009,07,06,13,11,18.00
2009,07,06,13,12,18.10
2009,07,06,13,13,18.10
2009,07,06,13,14,18.10
2009,07,06,13,15,18.10
2009,07,06,13,16,18.10
2009,07,06,13,17,18.10
2009,07,06,13,18,18.10
2009,07,06,13,19,18.00
2009,07,06,13,20,17.90
2009,07,06,13,21,17.90
2009,07,06,13,22,17.90
2009,07,06,13,23,17.90
2009,07,06,13,24,17.90
2009,07,06,13,25,17.90
2009,07,06,13,26,17.90
2009,07,06,13,27,17.90
2009,07,06,13,28,17.90
2009,07,06,13,29,17.90
2009,07,06,13,30,18.10
2009,07,06,13,31,18.20
2009,07,06,13,32,18.20
2009,07,06,13,33,18.20
2009,07,06,13,34,18.20
2009,07,06,13,35,18.10
2009,07,06,13,36,18.10
2009,07,06,13,37,18.00
2009,07,06,13,38,17.90
2009,07,06,13,39,17.90
2009,07,06,13,40,17.90
2009,07,06,13,41,17.90
2009,07,06,13,42,17.90
2009,07,06,13,43,17.90
2009,07,06,13,44,17.90
2009,07,06,13,45,17.90
2009,07,06,13,46,18.00
2009,07,06,13,47,18.10
2009,07,06,13,48,18.10
2009,07,06,13,49,18.10
2009,07,06,13,50,18.20
2009,07,06,13,51,18.20
2009,07,06,13,52,18.20
2009,07,06,13,53,18.20
2009,07,06,13,54,18.20
2009,07,06,13,55,18.20
2009,07,06,13,56,18.20
2009,07,06,13,57,18.20
2009,07,06,13,58,18.20
2009,07,06,13,59,18.20
2009,07,06,14,00,18.30
2009,07,06,14,01,18.30
2009,07,06,14,02,18.30
2009,07,06,14,03,18.30
2009,07,06,14,04,18.30
2009,07,06,14,05,18.30
2009,07,06,14,06,18.30
2009,07,06,14,07,18.30
2009,07,06,14,08,18.40
2009,07,06,14,09,18.40
2009,07,06,14,10,18.50
2009,07,06,14,11,18.50
2009,07,06,14,12,18.50
2009,07,06,14,13,18.60
2009,07,06,14,14,18.60
2009,07,06,14,15,18.60
2009,07,06,14,16,18.60
2009,07,06,14,17,18.60
2009,07,06,14,18,18.60
2009,07,06,14,19,18.60
2009,07,06,14,20,18.60
2009,07,06,14,21,18.70
2009,07,06,14,22,18.70
2009,07,06,14,23,18.70
2009,07,06,14,24,18.70
2009,07,06,14,25,18.80
2009,07,06,14,26,18.80
2009,07,06,14,27,18.80
2009,07,06,14,28,18.90
2009,07,06,14,29,18.90
2009,07,06,14,30,18.90
2009,07,06,14,31,18.90
2009,07,06,14,32,18.90
2009,07,06,14,33,18.90
2009,07,06,14,34,19.00
2009,07,06,14,35,19.10
2009,07,06,14,36,19.10
2009,07,06,14,37,19.10
2009,07,06,14,38,19.10
2009,07,06,14,39,19.10
2009,07,06,14,40,19.10
2009,07,06,14,41,19.10
2009,07,06,14,42,19.10
2009,07,06,14,43,19.00
2009,07,06,14,44,18.90
2009,07,06,14,45,18.90
2009,07,06,14,46,18.90
2009,07,06,14,47,18.90
2009,07,06,14,48,18.80
2009,07,06,14,49,18.80
2009,07,06,14,50,18.70
2009,07,06,14,51,18.70
2009,07,06,14,52,18.70
2009,07,06,14,53,18.70
2009,07,06,14,54,18.60
2009,07,06,14,55,18.60
2009,07,06,14,56,18.60
2009,07,06,14,57,18.60
2009,07,06,14,58,18.60
2009,07,06,14,59,18.60
2009,07,06,15,00,18.60
2009,07,06,15,01,18.60
2009,07,06,15,02,18.60
2009,07,06,15,03,18.60
2009,07,06,15,04,18.60
2009,07,06,15,05,18.70
2009,07,06,15,06,18.70
2009,07,06,15,07,18.70
2009,07,06,15,08,18.70
2009,07,06,15,09,18.80
2009,07,06,15,10,18.80
2009,07,06,15,11,18.80
2009,07,06,15,12,18.80
2009,07,06,15,13,18.80
2009,07,06,15,14,18.80
2009,07,06,15,15,18.80
2009,07,06,15,16,18.90
2009,07,06,15,17,18.90
2009,07,06,15,18,18.90
2009,07,06,15,19,18.90
2009,07,06,15,20,18.80
2009,07,06,15,21,18.80
2009,07,06,15,22,18.90
2009,07,06,15,23,18.90
2009,07,06,15,24,18.90
2009,07,06,15,25,18.90
2009,07,06,15,26,18.90
2009,07,06,15,27,18.90
2009,07,06,15,28,18.90
2009,07,06,15,29,19.00
2009,07,06,15,30,19.10
2009,07,06,15,31,19.10
2009,07,06,15,32,19.10
2009,07,06,15,33,19.10
2009,07,06,15,34,19.10
2009,07,06,15,35,19.10
2009,07,06,15,36,19.10
2009,07,06,15,37,19.20
2009,07,06,15,38,19.20
2009,07,06,15,39,19.20
2009,07,06,15,40,19.20
2009,07,06,15,41,19.10
2009,07,06,15,42,19.10
2009,07,06,15,43,19.10
2009,07,06,15,44,19.10
2009,07,06,15,45,19.10
2009,07,06,15,46,19.10
2009,07,06,15,47,19.10
2009,07,06,15,48,19.10
2009,07,06,15,49,19.10
2009,07,06,15,50,19.10
2009,07,06,15,51,19.10
2009,07,06,15,52,19.10
2009,07,06,15,53,19.10
2009,07,06,15,54,19.20
2009,07,06,15,55,19.30
2009,07,06,15,56,19.40
2009,07,06,15,57,19.50
2009,07,06,15,58,19.50
2009,07,06,15,59,19.50
2009,07,06,16,00,19.60
2009,07,06,16,01,19.60
2009,07,06,16,02,19.70
2009,07,06,16,03,19.70
2009,07,06,16,04,19.90
2009,07,06,16,05,19.90
2009,07,06,16,06,19.90
2009,07,06,16,07,19.90
2009,07,06,16,08,20.00
2009,07,06,16,09,20.00
2009,07,06,16,10,19.90
2009,07,06,16,11,19.90
2009,07,06,16,12,19.80
2009,07,06,16,13,19.70
2009,07,06,16,14,19.60
2009,07,06,16,15,19.60
2009,07,06,16,16,19.50
2009,07,06,16,17,19.40
2009,07,06,16,18,19.30
2009,07,06,16,19,19.40
2009,07,06,16,20,19.40
2009,07,06,16,21,19.40
2009,07,06,16,22,19.40
2009,07,06,16,23,19.40
2009,07,06,16,24,19.40
2009,07,06,16,25,19.40
2009,07,06,16,26,19.40
2009,07,06,16,27,19.40
2009,07,06,16,28,19.40
2009,07,06,16,29,19.40
2009,07,06,16,30,19.40
2009,07,06,16,31,19.40
2009,07,06,16,32,19.40
2009,07,06,16,33,19.30
2009,07,06,16,34,19.30
2009,07,06,16,35,19.30
2009,07,06,16,36,19.30
2009,07,06,16,37,19.30
2009,07,06,16,38,19.30
2009,07,06,16,39,19.30
2009,07,06,16,40,19.30
2009,07,06,16,41,19.30
2009,07,06,16,42,19.30
2009,07,06,16,43,19.30
2009,07,06,16,44,19.40
2009,07,06,16,45,19.40
2009,07,06,16,46,19.50
2009,07,06,16,47,19.60
2009,07,06,16,48,19.60
2009,07,06,16,49,19.60
2009,07,06,16,50,19.50
2009,07,06,16,51,19.50
2009,07,06,16,52,19.50
2009,07,06,16,53,19.40
2009,07,06,16,54,19.30
2009,07,06,16,55,19.30
2009,07,06,16,56,19.10
2009,07,06,16,57,19.00
2009,07,06,16,58,18.90
2009,07,06,16,59,18.90
2009,07,06,17,00,18.80
2009,07,06,17,01,18.70
2009,07,06,17,02,18.60
2009,07,06,17,03,18.60
2009,07,06,17,04,18.50
2009,07,06,17,05,18.50
2009,07,06,17,06,18.40
2009,07,06,17,07,18.30
2009,07,06,17,08,18.30
2009,07,06,17,09,18.30
2009,07,06,17,10,18.20
2009,07,06,17,11,18.20
2009,07,06,17,12,18.20
2009,07,06,17,13,18.20
2009,07,06,17,14,18.20
2009,07,06,17,15,18.20
2009,07,06,17,16,18.20
2009,07,06,17,17,18.20
2009,07,06,17,18,18.10
2009,07,06,17,19,18.10